Погода в Петровке

Украина / Луганская область     48°32′01″N   38°48′59″E
темп.,
°C
ветер,
м/с
пор.,
м/с
влажн.,
%
обл.,
%
осадки,
мм/ч
давл.,
гПа
погр.,
м
22 мая, вс
вс2200:00+15зюз81791100 1.6 1003833
03:00+13зюз9188994 2.1 1002552
06:00+13зюз101792100 0.0 1001753
09:00+15з8138489 0.0 10001010
12:00+16з101268100 0.2 9991392
15:00+17зсз91256100 0.2 9992095
18:00+15з6106996 0.1 9991277
21:00+11з5128718 0.4 1000427
23 мая, пн
пн2300:00+10з61186100 0.1 1000708
03:00+10зсз6988100 0.1 1001692
06:00+7ссз5118875 0.0 1003705
09:00+11с5868100 0.0 10051276
12:00+13с4658100 0.1 10051428
15:00+13с4557100 0.1 10061307
18:00+13ссв245877 0.0 1007645
21:00+10с2663100 0.1 1008179
24 мая, вт
вт2400:00+7св2276100 0.0 101021
03:00+6св117867 0.0 101110
06:00+7ссз117487 0.0 101140
09:00+12ссз336013 0.0 1012830
12:00+14сз344792 0.1 10122026
15:00+15сз5449100 0.1 10121919
18:00+13з466117 0.0 1013636
21:00+9зюз347212 0.0 101553
25 мая, ср
ср2500:00+8з377272 0.0 1015119
03:00+7з35845 0.0 101669
06:00+9з49855 0.0 1017239
09:00+15зсз686873 0.0 1017717
12:00+17сз575230 0.3 10171722
15:00+14зсз4778100 1.3 1019387
18:00+16з377059 2.1 1018440
21:00+12зюз337987 2.3 101930
26 мая, чт
чт2600:00+11зюз358159 0.2 101965
03:00+10зюз478327 0.2 102094
06:00+11юз498191 0.0 1019159
09:00+17зюз695957 0.0 1018572
12:00+20зюз784691 0.0 10182570
15:00+20юз81049100 0.0 10162286
18:00+15з91371100 0.1 1015921
21:00+12юз91681100 0.8 1015894